Spokane Felts, WA
on Thursday, January 3, 2013

Thursday
Previous Day Next Day
Daily Summary
 ActualAverageRecord
Temperature
Mean Temperature °F 30°F  
Max Temperature 29°F 35°F 46°F (2003)
Min Temperature 14°F 24°F 0°F (2009)
Degree Days
Heating Degree Days 43 35  
Month to date heating degree days 127 106  
Since 1 July heating degree days 2295 2775  
Cooling Degree Days 0 0  
Month to date cooling degree days 0 0  
Year to date cooling degree days 0 0  
Moisture
Dew Point 14°F   
Average Humidity 76    
Maximum Humidity 88    
Minimum Humidity 63    
Precipitation
Precipitation 0.00 in 0.07 in 0.22 in (2007)
Month to date precipitation 0.00 0.20  
Year to date precipitation 0.00 0.20  
Wind
Wind Speed 0 mph   
Max Wind Speed 7 mph   
Max Gust Speed 8 mph   
Visibility 9 miles   
Events     

Key: T is trace of precipitation, MM is missing value
Source: NWS Daily Summary
Time(PST)TemperatureDew PointHumidity Pressure Visibility Wind DirectionWind SpeedGust SpeedPrecipitationEvents Conditions
12:53 AM 18.0°F 12.9°F 81% 30.51 in 8.0 miles Calm Calm - N/A   Clear
1:53 AM 19.0°F 14.0°F 81% 30.50 in 7.0 miles Calm Calm - N/A   Clear
2:53 AM 17.1°F 12.9°F 84% 30.50 in 8.0 miles Calm Calm - N/A   Clear
3:53 AM 16.0°F 12.9°F 88% 30.50 in 5.0 miles Calm Calm - N/A   Scattered Clouds
4:01 AM 15.8°F 12.2°F 86% 30.41 in 6.0 miles Calm Calm - N/A   Mostly Cloudy
4:21 AM 15.8°F 10.4°F 79% 30.41 in 8.0 miles Calm Calm - N/A   Partly Cloudy
4:53 AM 15.1°F 10.9°F 84% 30.49 in 10.0 miles Calm Calm - N/A   Clear
5:53 AM 14.0°F 10.0°F 84% 30.49 in 10.0 miles Calm Calm - N/A   Clear
6:53 AM 15.1°F 10.0°F 80% 30.48 in 9.0 miles Calm Calm - N/A   Clear
7:53 AM 14.0°F 9.0°F 80% 30.48 in 7.0 miles Calm Calm - N/A   Clear
8:53 AM 15.1°F 10.9°F 84% 30.50 in 7.0 miles Calm Calm - N/A   Clear
9:53 AM 19.0°F 15.1°F 85% 30.49 in 7.0 miles Calm Calm - N/A   Clear
10:53 AM 23.0°F 17.1°F 78% 30.46 in 10.0 miles Calm Calm - N/A   Clear
11:53 AM 25.0°F 18.0°F 75% 30.44 in 9.0 miles Calm Calm - N/A   Clear
12:53 PM 28.0°F 18.0°F 66% 30.41 in 10.0 miles ENE 4.6 mph - N/A   Clear
1:53 PM 28.9°F 18.0°F 64% 30.39 in 10.0 miles NE 3.5 mph - N/A   Clear
2:53 PM 28.0°F 18.0°F 66% 30.38 in 10.0 miles Calm Calm - N/A   Clear
3:53 PM 28.0°F 18.0°F 66% 30.38 in 10.0 miles Calm Calm - N/A   Clear
4:53 PM 25.0°F 17.1°F 72% 30.39 in 10.0 miles Calm Calm - N/A   Clear
5:53 PM 21.9°F 16.0°F 78% 30.40 in 10.0 miles Calm Calm - N/A   Clear
6:53 PM 23.0°F 17.1°F 78% 30.41 in 10.0 miles Calm Calm - N/A   Clear
7:53 PM 21.0°F 17.1°F 85% 30.41 in 10.0 miles Calm Calm - N/A   Clear
8:53 PM 19.9°F 16.0°F 85% 30.41 in 10.0 miles Calm Calm - N/A   Clear
9:53 PM 19.0°F 15.1°F 85% 30.42 in 9.0 miles Calm Calm - N/A   Clear
10:53 PM 18.0°F 12.9°F 81% 30.43 in 6.0 miles Calm Calm - N/A   Haze
11:53 PM 19.9°F 16.0°F 85% 30.43 in 8.0 miles Calm Calm - N/A   Overcast
Moon Phase
Jan. 03 Jan. 04 Jan. 11 Jan. 18 Jan. 26
Sunrise:07:37 AM (PST) Moon Rise:11:22 PM (PST)1/3
Sunset:04:10 PM (PST) Moon Set:10:22 AM (PST)1/3

Copyright © 2014 The Weather Underground, Inc.